This is the latest recevied weather packets stored in our database for station/object KC5DAQ-2. If no packets are shown the sender has not sent any weather packets the latest 10 day(s).
| Time | Temp. | Humidity | Pressure | Rain* | Wind** | Luminosity | Snow |
|---|---|---|---|---|---|---|---|
| 1787839024 | 27.78° C | 96% | 1006.8 hPa | 0 mm | - | 118 W/m² | - |
| 1787838963 | 27.78° C | 96% | 1006.7 hPa | 0 mm | - | 118 W/m² | - |
| 1787838904 | 27.22° C | 96% | 1006.7 hPa | 0 mm | - | 95 W/m² | - |
| 1787838843 | 27.22° C | 96% | 1006.8 hPa | 0 mm | - | 95 W/m² | - |
| 1787838783 | 27.22° C | 96% | 1006.8 hPa | 0 mm | - | 95 W/m² | - |
| 1787838723 | 27.22° C | 96% | 1006.9 hPa | 0 mm | - | 95 W/m² | - |
| 1787838664 | 27.22° C | 96% | 1006.8 hPa | 0 mm | - | 95 W/m² | - |
| 1787838606 | 27.22° C | 96% | 1006.9 hPa | 0 mm | - | 95 W/m² | - |
| 1787838544 | 27.22° C | 96% | 1007 hPa | 0 mm | - | 90 W/m² | - |
| 1787838483 | 27.22° C | 96% | 1007 hPa | 0 mm | - | 90 W/m² | - |
| 1787838425 | 27.22° C | 96% | 1007 hPa | 0 mm | - | 90 W/m² | - |
| 1787838364 | 27.22° C | 96% | 1006.9 hPa | 0 mm | - | 90 W/m² | - |
| 1787838305 | 27.22° C | 96% | 1007.1 hPa | 0 mm | - | 90 W/m² | - |
| 1787838243 | 27.22° C | 96% | 1007 hPa | 0 mm | - | 90 W/m² | - |
| 1787838184 | 27.22° C | 96% | 1007.1 hPa | 0 mm | - | 91 W/m² | - |
| 1787838122 | 27.22° C | 96% | 1007 hPa | 0 mm | - | 77 W/m² | - |
| 1787838058 | 27.22° C | 96% | 1007 hPa | 0 mm | - | 77 W/m² | - |
| 1787837989 | 27.22° C | 96% | 1006.9 hPa | 0 mm | - | 77 W/m² | - |
| 1787837919 | 27.22° C | 96% | 1006.8 hPa | 0 mm | - | 74 W/m² | - |
| 1787837857 | 27.22° C | 96% | 1006.8 hPa | 0 mm | - | 74 W/m² | - |
| 1787837796 | 27.22° C | 96% | 1006.8 hPa | 0 mm | - | 74 W/m² | - |
| 1787837733 | 27.22° C | 96% | 1006.8 hPa | 0 mm | - | 74 W/m² | - |
| 1787837671 | 27.22° C | 96% | 1006.9 hPa | 0 mm | - | 74 W/m² | - |
| 1787837611 | 27.22° C | 96% | 1006.9 hPa | 0 mm | - | 74 W/m² | - |
| 1787837553 | 27.22° C | 96% | 1006.8 hPa | 0 mm | - | 74 W/m² | - |
* Rain latest hour (hover to see other rain measurements)
** Current wind speed in m/s (hover to see current wind gust speed)